Mansfield Center, CT

4:08 AM EST on January 23, 2017 (GMT -0500)
Windham

Weather History for KIJD - November, 2011

Change the Weather History Date:

Tuesday, November 1, 2011

  Actual Average Record
Temperature  
Mean Temperature 42 °F -  
Max Temperature 53 °F 58 °F 75 °F (2003)
Min Temperature 30 °F 31 °F 18 °F (1964)
Degree Days  
Heating Degree Days 24    
Moisture  
Dew Point 33 °F    
Average Humidity 81    
Maximum Humidity 96    
Minimum Humidity 48    
Precipitation  
Precipitation 0.00 in - - ()
Sea Level Pressure  
Sea Level Pressure 30.35 in    
Wind  
Wind Speed 2 mph (NE)    
Max Wind Speed 14 mph    
Max Gust Speed 21 mph    
Visibility 9 miles    
Events      
Averages and records for this station are not official NWS values.
T = Trace of Precipitation, MM = Missing Value Source: NWS Daily Summary

Daily Weather History Graph

Daily Weather History Graph

Search for Another Location

Airport or City:

Trip Planner

Search our weather history database for the weather conditions in past years. The results will help you decide how hot, cold, wet, or windy it might be!

Date:

Astronomy

Nov. 01, 2011 Rise Set
Actual Time 7:20 AM EDT 5:43 PM EDT
Civil Twilight 6:51 AM EDT 6:12 PM EDT
Nautical Twilight 6:18 AM EDT 6:45 PM EDT
Astronomical Twilight 5:46 AM EDT 7:17 PM EDT
Moon 1:06 PM EDT (11/1) 11:22 PM EDT (11/1)
Length of Visible Light 11h 20m
Length of Day
10h 22m
Waxing Crescent, 39% of the Moon is Illuminated
Nov 1
Waxing Crescent
Nov 2
First Quarter
Nov 10
Full
Nov 18
Last Quarter
Nov 25
New

Hourly Weather History & Observations

Time (EDT) Temp. Windchill Dew Point Humidity Pressure Visibility Wind Dir Wind Speed Gust Speed Precip Events Conditions
1:52 AM 30.9 °F - 28.9 °F 92% 30.38 in 6.0 mi Calm Calm - N/A   Clear
2:52 AM 32.0 °F - 30.0 °F 92% 30.39 in 6.0 mi Calm Calm - N/A   Clear
3:52 AM 32.0 °F - 30.9 °F 96% 30.37 in 6.0 mi Calm Calm - N/A   Clear
4:52 AM 32.0 °F - 30.9 °F 96% 30.36 in 7.0 mi Calm Calm - N/A   Clear
5:52 AM 32.0 °F 28.7 °F 30.9 °F 96% 30.35 in 7.0 mi NNE 3.5 mph - N/A   Clear
6:52 AM 33.1 °F - 30.9 °F 92% 30.35 in 7.0 mi Calm Calm - N/A   Clear
7:52 AM 35.1 °F - 33.1 °F 92% 30.34 in 8.0 mi Calm Calm - N/A   Clear
8:52 AM 36.0 °F - 34.0 °F 93% 30.37 in 9.0 mi Calm Calm - N/A   Clear
9:52 AM 41.0 °F - 37.0 °F 86% 30.37 in 10.0 mi Calm Calm - N/A   Clear
10:52 AM 46.0 °F 43.9 °F 37.0 °F 71% 30.35 in 10.0 mi NNE 4.6 mph - N/A   Clear
11:52 AM 48.9 °F - 37.0 °F 64% 30.35 in 10.0 mi NE 12.7 mph - N/A   Clear
12:52 PM 51.1 °F - 35.1 °F 54% 30.32 in 10.0 mi ENE 13.8 mph 20.7 mph N/A   Clear
1:52 PM 52.0 °F - 33.1 °F 49% 30.32 in 10.0 mi ENE 12.7 mph - N/A   Clear
3:52 PM 53.1 °F - 34.0 °F 48% 30.31 in 10.0 mi NNE 8.1 mph - N/A   Clear
4:52 PM 51.1 °F - 34.0 °F 52% 30.32 in 10.0 mi NNE 8.1 mph - N/A   Clear
5:52 PM 46.9 °F - 34.0 °F 61% 30.33 in 10.0 mi NNE 5.8 mph - N/A   Clear
6:52 PM 41.0 °F 39.0 °F 34.0 °F 76% 30.35 in 10.0 mi NE 3.5 mph - N/A   Clear
7:52 PM 37.9 °F - 34.0 °F 86% 30.35 in 10.0 mi Calm Calm - N/A   Clear
8:52 PM 34.0 °F - 32.0 °F 92% 30.37 in 10.0 mi Calm Calm - N/A   Clear
9:52 PM 32.0 °F - 30.0 °F 92% 30.37 in 10.0 mi Calm Calm - N/A   Clear
10:52 PM 32.0 °F - 30.9 °F 96% 30.37 in 7.0 mi Calm Calm - N/A   Clear
11:52 PM 30.0 °F - 28.9 °F 96% 30.36 in 7.0 mi Calm Calm - N/A   Clear